Regional Weather Roundup
Issued by NWS Cleveland, OH

Home | Current Version | Previous Version | Text Only | Print | Product List | Glossary Off
Versions: 1 2 3 4 5 6 7 8 9 10 11 12 13 14 15 16 17 18 19 20 21 22 23 24 25 26 27 28 29 30 31 32 33 34 35 36 37 38 39 40 41 42 43 44 45 46 47 48 49 50

476
ASUS41 KCLE 231310
RWRCLE
OHIO REGIONAL WEATHER ROUNDUP
NATIONAL WEATHER SERVICE CLEVELAND, OH
900 AM EDT SAT JUL 23 2016

NOTE: "FAIR" INDICATES FEW OR NO CLOUDS BELOW 12,000 FEET WITH NO
SIGNIFICANT WEATHER AND/OR OBSTRUCTIONS TO VISIBILITY.

OHZ001>008-015>018-024>027-034-035-043-044-231400-
   NORTHWEST OHIO

CITY           SKY/WX    TMP DP  RH WIND       PRES   REMARKS
DEFIANCE       SUNNY     78  71  79 CALM      30.01R
FINDLAY        SUNNY     80  70  71 NW3       30.01R
TOLEDO EXPRESS MOSUNNY   78  72  81 NW5       30.01R
TOLEDO EXEC    SUNNY     79  73  82 NW5       30.01R
LIMA           SUNNY     76  74  93 W3        30.02S
$$

OHZ009>014-019>023-028>033-038-089-231400-
   NORTHEAST OHIO

CITY           SKY/WX    TMP DP  RH WIND       PRES   REMARKS
CLE-HOPKINS    PTSUNNY   81  73  76 SW6       30.02R
CLE-LAKEFRONT  PTSUNNY   81  74  79 W6        29.99R
CUY CO. ARPT   MOSUNNY   82  77  83 W7        30.01R HX  91
LORAIN-ELYRIA  SUNNY     79  73  82 W3        30.01R
ASHTABULA      SUNNY     78  73  84 NW7       30.01R
AKRON-CANTON   MOSUNNY   80  72  76 N7        30.02S HAZE
WOOSTER        SUNNY     79  73  82 CALM      30.03R
MANSFIELD      SUNNY     80  73  79 W3        30.03S
YOUNGSTOWN     MOSUNNY   78  72  81 W7        30.02R
$$

OHZ042-051>053-060>062-070>072-077>081-231400-
  SOUTHWEST OHIO

CITY           SKY/WX    TMP DP  RH WIND       PRES   REMARKS
CINC-COVINGTON CLOUDY    77  75  93 SE6       30.04R FOG
CINC-LUNKEN    CLOUDY    75  74  96 S6        30.03R
HAMILTON       SUNNY     79  73  82 CALM      30.03S
DAYTON         MOSUNNY   78  73  84 N5        30.05R
WRIGHT-PAT AFB SUNNY     78  76  94 N3        30.03R
DAYTON GENERAL SUNNY     80  71  74 CALM      30.03R
WILMINGTON     SUNNY     77  73  87 S3        30.04R
$$

OHZ036-037-039>041-045>050-054>059-063>069-073>076-082>088-231400-
  CENTRAL AND SOUTHEAST OHIO

CITY           SKY/WX    TMP DP  RH WIND       PRES   REMARKS
COLUMBUS       MOSUNNY   75  71  87 CALM      30.02R
OSU AIRPORT    SUNNY     78  73  84 CALM      30.03R HAZE
BOLTON FIELD   SUNNY     75  73  94 CALM      30.03R FOG
RICKENBACK AFB SUNNY     74  71  91 SW3       30.03R
NEWARK         SUNNY     75  71  87 SW3       30.02S
MARION         SUNNY     79  72  79 N3        30.02S HAZE
LANCASTER      SUNNY     76  73  91 CALM      30.03S
ZANESVILLE     SUNNY     76  70  82 SW3       30.03S
NEW PHILLY     SUNNY     79  71  76 CALM      30.02S
$$




USA.gov is the U.S. government's official web portal to all federal, state and local government web resources and services.